| time (UTC) | temp F | wind direction | speed knots | gust knots | rain 1hr in | rain 24hr in | rain mn in | humidity % | barometer mb |
| 20260902230714 | 60 | 180 | 0.0 | 0.0 | 0.00 | 0.00 | 0.00 | 92 | 1018.0 |
| 20260902224713 | 60 | 202 | 0.0 | 0.0 | 0.00 | 0.00 | 0.00 | 91 | 1018.3 |
| 20260902223811 | 60 | 202 | 0.0 | 0.0 | 0.00 | 0.00 | 0.00 | 90 | 1018.0 |
| 20260902221813 | 60 | 202 | 0.0 | 0.0 | 0.00 | 0.00 | 0.00 | 92 | 1018.2 |
| 20260902215914 | 60 | 204 | 0.0 | 2.6 | 0.00 | 0.00 | 0.00 | 91 | 1018.4 |
| 20260902213911 | 60 | 45 | 0.9 | 1.7 | 0.00 | 0.00 | 0.00 | 90 | 1018.2 |
| 20260902212913 | 60 | 45 | 0.0 | 0.0 | 0.00 | 0.00 | 0.00 | 89 | 1018.0 |
| 20260902211011 | 60 | 45 | 0.0 | 0.0 | 0.00 | 0.00 | 0.00 | 89 | 1017.8 |
| 20260902210913 | 60 | 45 | 0.0 | 0.0 | 0.00 | 0.00 | 0.00 | 89 | 1017.8 |
| 20260902210012 | 60 | 45 | 0.0 | 0.0 | 0.00 | 0.00 | 0.00 | 90 | 1017.8 |
| 20260902204013 | 60 | 45 | 2.6 | 2.6 | 0.00 | 0.00 | 0.00 | 89 | 1017.7 |
| 20260902203014 | 60 | 49 | 3.5 | 3.5 | 0.00 | 0.00 | 0.00 | 89 | 1017.7 |
| 20260902202112 | 60 | 135 | 0.0 | 0.0 | 0.00 | 0.00 | 0.00 | 88 | 1017.9 |
| 20260902201112 | 60 | 135 | 0.0 | 0.0 | 0.00 | 0.00 | 0.00 | 88 | 1018.0 |
| 20260902200112 | 60 | 135 | 0.9 | 2.6 | 0.00 | 0.00 | 0.00 | 87 | 1018.1 |
| 20260902195112 | 61 | 184 | 0.0 | 3.5 | 0.00 | 0.00 | 0.00 | 86 | 1018.4 |
| 20260902194113 | 61 | 207 | 1.7 | 4.3 | 0.00 | 0.00 | 0.00 | 85 | 1018.5 |
| 20260902193112 | 61 | 225 | 5.2 | 7.0 | 0.00 | 0.00 | 0.00 | 83 | 1018.5 |
| 20260902192211 | 62 | 220 | 5.2 | 7.8 | 0.00 | 0.00 | 0.00 | 82 | 1018.4 |
| 20260902191213 | 62 | 225 | 6.1 | 7.0 | 0.00 | 0.00 | 0.00 | 80 | 1018.4 |
| 20260902190214 | 63 | 231 | 3.5 | 5.2 | 0.00 | 0.00 | 0.00 | 78 | 1018.2 |
| 20260902185212 | 63 | 225 | 3.5 | 5.2 | 0.00 | 0.00 | 0.00 | 76 | 1018.2 |
| 20260902184214 | 63 | 270 | 5.2 | 6.1 | 0.00 | 0.00 | 0.00 | 73 | 1017.9 |
| 20260902183210 | 64 | 247 | 4.3 | 6.1 | 0.00 | 0.00 | 0.00 | 71 | 1018.0 |
| 20260902182212 | 65 | 270 | 3.5 | 4.3 | 0.00 | 0.00 | 0.00 | 66 | 1018.0 |
| 20260902175311 | 64 | 247 | 0.9 | 1.7 | 0.00 | 0.00 | 0.00 | 66 | 1018.0 |
| 20260902175211 | 64 | 247 | 0.9 | 1.7 | 0.00 | 0.00 | 0.00 | 66 | 1018.0 |
| 20260902174213 | 65 | 292 | 2.6 | 2.6 | 0.00 | 0.00 | 0.00 | 66 | 1017.9 |
| 20260902172213 | 64 | 22 | 1.7 | 2.6 | 0.00 | 0.00 | 0.00 | 67 | 1017.9 |
| 20260902171212 | 64 | 22 | 2.6 | 3.5 | 0.00 | 0.00 | 0.00 | 68 | 1017.9 |
| 20260902171110 | 64 | 22 | 1.7 | 2.6 | 0.00 | 0.00 | 0.00 | 68 | 1017.9 |
| 20260902170112 | 64 | 22 | 3.5 | 4.3 | 0.00 | 0.00 | 0.00 | 68 | 1018.0 |
| 20260902164211 | 64 | 22 | 3.5 | 4.3 | 0.00 | 0.00 | 0.00 | 70 | 1018.1 |
| 20260902163213 | 63 | 45 | 3.5 | 4.3 | 0.00 | 0.00 | 0.00 | 70 | 1018.2 |
| 20260902162213 | 64 | 45 | 4.3 | 5.2 | 0.00 | 0.00 | 0.00 | 70 | 1018.3 |
| 20260902160310 | 64 | 45 | 5.2 | 6.1 | 0.00 | 0.00 | 0.00 | 68 | 1018.5 |
| 20260902155313 | 64 | 45 | 4.3 | 5.2 | 0.00 | 0.00 | 0.00 | 68 | 1018.7 |
| 20260902154311 | 63 | 45 | 2.6 | 4.3 | 0.00 | 0.00 | 0.00 | 71 | 1018.9 |
| 20260902152313 | 62 | 45 | 1.7 | 3.5 | 0.00 | 0.00 | 0.00 | 74 | 1019.2 |
| 20260902150412 | 61 | 112 | 0.0 | 0.0 | 0.00 | 0.00 | 0.00 | 76 | 1019.3 |
| 20260902145415 | 61 | 112 | 0.0 | 0.0 | 0.00 | 0.00 | 0.00 | 76 | 1019.4 |
| 20260902144511 | 61 | 135 | 0.0 | 0.0 | 0.00 | 0.00 | 0.00 | 77 | 1019.4 |
| 20260902143512 | 61 | 135 | 0.0 | 0.0 | 0.00 | 0.00 | 0.00 | 76 | 1019.6 |
| 20260902143413 | 61 | 135 | 0.0 | 0.0 | 0.00 | 0.00 | 0.00 | 76 | 1019.5 |
| 20260902142512 | 61 | 135 | 0.0 | 0.0 | 0.00 | 0.00 | 0.00 | 74 | 1019.9 |
| 20260902140612 | 60 | 135 | 0.0 | 0.0 | 0.00 | 0.00 | 0.00 | 77 | 1020.1 |
| 20260902140514 | 60 | 135 | 0.0 | 0.0 | 0.00 | 0.00 | 0.00 | 77 | 1020.1 |
| 20260902135611 | 60 | 135 | 0.0 | 0.0 | 0.00 | 0.00 | 0.00 | 76 | 1020.1 |
| 20260902134612 | 60 | 135 | 0.0 | 0.9 | 0.00 | 0.00 | 0.00 | 78 | 1020.3 |
| 20260902133611 | 60 | 135 | 1.7 | 3.5 | 0.00 | 0.00 | 0.00 | 79 | 1020.3 |
| 20260902132711 | 60 | 180 | 0.0 | 0.0 | 0.00 | 0.00 | 0.00 | 79 | 1020.4 |
| 20260902131711 | 60 | 247 | 0.0 | 0.0 | 0.00 | 0.00 | 0.00 | 78 | 1020.3 |
| 20260902125712 | 61 | 241 | 7.0 | 9.6 | 0.00 | 0.00 | 0.00 | 75 | 1020.5 |
| 20260902124713 | 62 | 243 | 7.8 | 10.4 | 0.00 | 0.00 | 0.00 | 71 | 1020.5 |
| 20260902123714 | 63 | 265 | 10.4 | 15.6 | 0.00 | 0.00 | 0.00 | 68 | 1020.4 |
| 20260902122712 | 63 | 257 | 5.2 | 7.0 | 0.00 | 0.00 | 0.00 | 68 | 1020.5 |
| 20260902121712 | 63 | 232 | 3.5 | 5.2 | 0.00 | 0.00 | 0.00 | 68 | 1020.3 |
| 20260902115713 | 63 | 253 | 3.5 | 6.1 | 0.00 | 0.00 | 0.00 | 71 | 1020.5 |
| 20260902114715 | 62 | 262 | 1.7 | 2.6 | 0.00 | 0.00 | 0.00 | 70 | 1020.6 |
| 20260902113711 | 63 | 210 | 0.9 | 2.6 | 0.00 | 0.00 | 0.00 | 70 | 1020.8 |
| 20260902112712 | 63 | 247 | 3.5 | 4.3 | 0.00 | 0.00 | 0.00 | 70 | 1020.6 |
| 20260902110711 | 63 | 260 | 4.3 | 5.2 | 0.00 | 0.00 | 0.00 | 69 | 1020.6 |
| 20260902105712 | 63 | 225 | 3.5 | 5.2 | 0.00 | 0.00 | 0.00 | 68 | 1020.8 |
| 20260902104712 | 63 | 248 | 5.2 | 6.1 | 0.00 | 0.00 | 0.00 | 68 | 1020.8 |
| 20260902103715 | 63 | 227 | 4.3 | 6.1 | 0.00 | 0.00 | 0.00 | 69 | 1020.9 |
| 20260902101713 | 63 | 255 | 5.2 | 7.8 | 0.00 | 0.00 | 0.00 | 68 | 1021.2 |
| 20260902100810 | 64 | 225 | 4.3 | 5.2 | 0.00 | 0.00 | 0.00 | 67 | 1021.3 |
| 20260902095813 | 64 | 242 | 7.8 | 10.4 | 0.00 | 0.00 | 0.00 | 67 | 1021.4 |
| 20260902094814 | 64 | 223 | 3.5 | 6.1 | 0.00 | 0.00 | 0.00 | 68 | 1021.4 |
| 20260902092910 | 64 | 229 | 4.3 | 7.0 | 0.00 | 0.00 | 0.00 | 70 | 1021.4 |
| 20260902091913 | 64 | 238 | 10.4 | 13.9 | 0.00 | 0.00 | 0.00 | 70 | 1021.2 |
| 20260902090813 | 64 | 226 | 5.2 | 7.8 | 0.00 | 0.00 | 0.00 | 69 | 1021.4 |
| 20260902085814 | 64 | 225 | 4.3 | 6.1 | 0.00 | 0.00 | 0.00 | 70 | 1021.5 |
| 20260902084811 | 64 | 240 | 7.8 | 11.3 | 0.00 | 0.00 | 0.00 | 71 | 1021.3 |
| 20260902083813 | 64 | 234 | 3.5 | 4.3 | 0.00 | 0.00 | 0.00 | 70 | 1021.6 |
| 20260902082811 | 64 | 229 | 5.2 | 7.8 | 0.00 | 0.00 | 0.00 | 70 | 1021.3 |
| 20260902081813 | 64 | 227 | 4.3 | 6.1 | 0.00 | 0.00 | 0.00 | 71 | 1021.5 |
| 20260902080911 | 64 | 225 | 5.2 | 7.0 | 0.00 | 0.00 | 0.00 | 71 | 1021.5 |
| 20260902075912 | 64 | 230 | 5.2 | 7.0 | 0.00 | 0.00 | 0.00 | 71 | 1021.5 |
| 20260902075010 | 63 | 248 | 7.0 | 7.8 | 0.00 | 0.00 | 0.00 | 70 | 1021.5 |
| 20260902074013 | 63 | 225 | 7.8 | 10.4 | 0.00 | 0.00 | 0.00 | 70 | 1021.7 |
| 20260902073110 | 63 | 229 | 7.0 | 9.6 | 0.00 | 0.00 | 0.00 | 71 | 1021.7 |
| 20260902072112 | 63 | 225 | 5.2 | 7.0 | 0.00 | 0.00 | 0.00 | 72 | 1021.7 |
| 20260902071112 | 63 | 240 | 7.8 | 10.4 | 0.00 | 0.00 | 0.00 | 72 | 1021.9 |
| 20260902070112 | 63 | 239 | 5.2 | 7.8 | 0.00 | 0.00 | 0.00 | 73 | 1022.1 |
| 20260902065124 | 63 | 229 | 5.2 | 7.8 | 0.00 | 0.00 | 0.00 | 74 | 1022.2 |
| 20260902064223 | 63 | 245 | 7.8 | 9.6 | 0.00 | 0.00 | 0.00 | 74 | 1022.4 |
| 20260902063224 | 63 | 247 | 8.7 | 11.3 | 0.00 | 0.00 | 0.00 | 74 | 1022.4 |
| 20260902062228 | 63 | 243 | 9.6 | 13.0 | 0.00 | 0.00 | 0.00 | 71 | 1022.4 |
| 20260902060327 | 65 | 255 | 12.2 | 19.1 | 0.00 | 0.00 | 0.00 | 67 | 1022.2 |
| 20260902055325 | 65 | 252 | 9.6 | 12.2 | 0.00 | 0.00 | 0.00 | 67 | 1022.2 |
| 20260902054326 | 65 | 233 | 7.8 | 11.3 | 0.00 | 0.00 | 0.00 | 68 | 1022.4 |
| 20260902053424 | 65 | 238 | 8.7 | 11.3 | 0.00 | 0.00 | 0.00 | 68 | 1022.2 |
| 20260902051524 | 65 | 244 | 7.8 | 9.6 | 0.00 | 0.00 | 0.00 | 67 | 1022.2 |
| 20260902051426 | 65 | 245 | 8.7 | 13.0 | 0.00 | 0.00 | 0.00 | 67 | 1022.1 |
| 20260902050525 | 65 | 227 | 9.6 | 13.0 | 0.00 | 0.00 | 0.00 | 66 | 1021.9 |
| 20260902045526 | 65 | 228 | 7.8 | 14.8 | 0.00 | 0.00 | 0.00 | 66 | 1022.0 |
| 20260902044527 | 66 | 229 | 10.4 | 13.9 | 0.00 | 0.00 | 0.00 | 65 | 1021.8 |
| 20260902043624 | 66 | 226 | 7.8 | 10.4 | 0.00 | 0.00 | 0.00 | 65 | 1021.8 |
| 20260902042723 | 66 | 237 | 7.0 | 9.6 | 0.00 | 0.00 | 0.00 | 65 | 1021.9 |
| 20260902035725 | 67 | 226 | 6.1 | 9.6 | 0.00 | 0.00 | 0.00 | 62 | 1021.7 |
| 20260902033725 | 67 | 238 | 7.8 | 11.3 | 0.00 | 0.00 | 0.00 | 62 | 1021.2 |
| 20260902032726 | 67 | 238 | 7.8 | 9.6 | 0.00 | 0.00 | 0.00 | 62 | 1021.4 |
| 20260902032624 | 67 | 241 | 9.6 | 10.4 | 0.00 | 0.00 | 0.00 | 62 | 1021.4 |
| 20260902031625 | 67 | 241 | 11.3 | 14.8 | 0.00 | 0.00 | 0.00 | 62 | 1021.3 |
| 20260902030626 | 67 | 240 | 7.8 | 11.3 | 0.00 | 0.00 | 0.00 | 61 | 1021.5 |
| 20260902025626 | 67 | 242 | 11.3 | 14.8 | 0.00 | 0.00 | 0.00 | 61 | 1021.3 |
| 20260902024625 | 67 | 238 | 7.8 | 11.3 | 0.00 | 0.00 | 0.00 | 62 | 1021.2 |
| 20260902023724 | 67 | 232 | 7.8 | 12.2 | 0.00 | 0.00 | 0.00 | 63 | 1021.2 |
| 20260902022725 | 67 | 225 | 7.8 | 10.4 | 0.00 | 0.00 | 0.00 | 64 | 1021.2 |
| 20260902021727 | 68 | 225 | 6.1 | 8.7 | 0.00 | 0.00 | 0.00 | 65 | 1021.0 |
| 20260902020824 | 68 | 230 | 7.8 | 11.3 | 0.00 | 0.00 | 0.00 | 63 | 1021.1 |
| 20260902015826 | 68 | 228 | 8.7 | 11.3 | 0.00 | 0.00 | 0.00 | 64 | 1021.0 |
| 20260902014827 | 68 | 229 | 7.0 | 7.8 | 0.00 | 0.00 | 0.00 | 63 | 1021.0 |
| 20260902013925 | 68 | 229 | 9.6 | 13.0 | 0.00 | 0.00 | 0.00 | 63 | 1021.2 |
| 20260902012926 | 68 | 225 | 9.6 | 12.2 | 0.00 | 0.00 | 0.00 | 64 | 1021.3 |
| 20260902012023 | 68 | 225 | 8.7 | 12.2 | 0.00 | 0.00 | 0.00 | 62 | 1021.1 |
| 20260902011123 | 68 | 216 | 6.1 | 9.6 | 0.00 | 0.00 | 0.00 | 62 | 1020.9 |
| 20260902010125 | 69 | 232 | 9.6 | 12.2 | 0.00 | 0.00 | 0.00 | 63 | 1020.7 |
| 20260902004225 | 68 | 220 | 9.6 | 12.2 | 0.00 | 0.00 | 0.00 | 62 | 1020.9 |
| 20260902003225 | 68 | 225 | 9.6 | 12.2 | 0.00 | 0.00 | 0.00 | 62 | 1020.7 |
| 20260902002225 | 68 | 230 | 8.7 | 11.3 | 0.00 | 0.00 | 0.00 | 62 | 1020.8 |
| 20260902002127 | 68 | 226 | 7.8 | 12.2 | 0.00 | 0.00 | 0.00 | 63 | 1020.8 |
| 20260902000226 | 68 | 220 | 10.4 | 14.8 | 0.00 | 0.00 | 0.00 | 61 | 1020.8 |
| 20260901235323 | 69 | 235 | 7.8 | 9.6 | 0.00 | 0.00 | 0.00 | 60 | 1020.8 |
| 20260901234324 | 69 | 224 | 10.4 | 13.0 | 0.00 | 0.00 | 0.00 | 60 | 1020.8 |
| 20260901233424 | 69 | 228 | 8.7 | 12.2 | 0.00 | 0.00 | 0.00 | 61 | 1020.9 |
| 20260901232427 | 68 | 225 | 11.3 | 15.6 | 0.00 | 0.00 | 0.00 | 61 | 1021.0 |